[[{"header":{"parameterUnit":"m.s-1","parameterCategory":2,"la1":30.2991,"la2":30.254,"lo1":-89.0895,"lo2":-89.0444,"dy":0.0017,"dx":0.0017,"nx":28,"ny":28,"refTime":"2025-03-27T09:00:00:Z","depth":"0","parameterNumber":2,"parameterNumberName":"U-component_of_CURRENTS"},"data":[0,0,0,0,0,0,0,0,0,0,0,0,0,0,0,0,0,0,0,0,0,0,0,0,0,0,0,0,0,0,0,0,0,0,0,0,0,0,0,0,0,0,0,0,0,0,0,0,0,0,0,0,0,0,0,0,0,0,0.1323,0.1323,0,0.1276,0.1275,0.1273,0.1225,0.1226,0.1226,0.1226,0.1096,0.1093,0.1089,0,0,0,0,0,0,0,0,0,0,0,0,0,0.1359,0.1358,0.1323,0.1323,0.1324,0.1276,0.1275,0.1273,0.1225,0.1226,0.1226,0.1226,0.1098,0.1093,0.1089,0,0,0,0,0,0,0,0,0,0,0,0,0,0.1322,0.1358,0.1323,0.1301,0.1299,0.1277,0.1275,0.1273,0.1225,0.1226,0.1226,0.1226,0.1099,0.1094,0.1088,0.105,0,0,0.1072,0.107,0,0,0,0,0,0,0,0,0.1325,0.132,0.1304,0.1302,0.13,0.1265,0.124,0.1197,0.1225,0.1244,0.1226,0.1226,0.1151,0.1141,0.112,0.1044,0.1038,0.1071,0.1068,0.1066,0.1064,0,0,0,0,0,0,0,0.1327,0.1322,0.1295,0.1304,0.1302,0.1289,0.1283,0.1232,0.1188,0.1242,0.1241,0.125,0.1148,0.1125,0.1117,0.1037,0.1072,0.1067,0.1063,0.1061,0.0952,0.0952,0,0,0,0,0,0,0.1351,0.1324,0.1297,0.1295,0.1323,0.1289,0.1282,0.1269,0.119,0.1182,0.125,0.1248,0.1135,0.1123,0.1112,0.1095,0.1066,0.1061,0.1058,0.0951,0.0952,0.0952,0,0,0,0,0,0,0.1352,0.1348,0.1299,0.1317,0.1311,0.1289,0.1274,0.1268,0.1253,0.1199,0.1187,0.1244,0.1134,0.1119,0.1078,0.1089,0.1058,0.1053,0.0951,0.0952,0.0952,0.104,0,0,0,0,0,0,0.1352,0.1348,0.1344,0.1318,0.1311,0.1292,0.1274,0.1267,0.1262,0.1259,0.1189,0.1177,0.1133,0.1087,0.1073,0.1081,0.1049,0.0951,0.0951,0.0952,0.1037,0.1043,0.1049,0,0,0,0,0,0.1353,0.135,0.1343,0.1341,0.1306,0.1294,0.1287,0.1268,0.1262,0.1254,0.1215,0.118,0.1081,0.1083,0.1066,0.1073,0.095,0.0951,0.0952,0.1034,0.1042,0.1049,0,0,0,0,0,0,0.136,0.1345,0.1337,0.1328,0.1317,0.1289,0.1285,0.1275,0.1236,0.1231,0.1177,0.1162,0.1135,0.1088,0.1091,0.1043,0.1012,0.1009,0.108,0.1087,0.1093,0.1102,0.1045,0,0,0,0,0,0.1363,0.1353,0.1342,0.1333,0.1332,0.1309,0.1303,0.1289,0.126,0.1243,0.1201,0.1155,0.1122,0.1094,0.1053,0.1017,0.102,0.1012,0.1018,0.1024,0.102,0.1051,0.1061,0.0955,0.0955,0.0955,0,0,0.136,0.1356,0.1346,0.1334,0.1321,0.131,0.1303,0.1295,0.1281,0.1234,0.1197,0.1175,0.112,0.1091,0.1073,0.1053,0.1061,0.1025,0.103,0.1023,0.1053,0.1063,0.1073,0.0955,0.0955,0.0955,0,0,0.1352,0.1348,0.1337,0.1332,0.1328,0.1316,0.1321,0.1298,0.1285,0.1253,0.123,0.1221,0.1142,0.1126,0.1103,0.1115,0.11,0.1098,0.1126,0.1157,0.1167,0.1175,0.1223,0.1234,0.1093,0.1094,0.1094,0,0.1352,0.1334,0.1333,0.1326,0.1324,0.1323,0.131,0.1297,0.1264,0.126,0.1247,0.1197,0.1161,0.1149,0.1158,0.1132,0.115,0.1107,0.1169,0.1177,0.1184,0.123,0.1242,0.1098,0.1097,0.1097,0.1097,0,0.1328,0.1323,0.1321,0.1307,0.1303,0.1297,0.1291,0.1287,0.1279,0.1268,0.1263,0.1235,0.1208,0.1205,0.1179,0.1211,0.1212,0.1186,0.1158,0.12,0.1246,0.1257,0.1104,0.1103,0.1101,0.11,0,0,0.1309,0.1303,0.1302,0.1298,0.1295,0.1288,0.1283,0.128,0.1281,0.1271,0.1276,0.1257,0.1268,0.1244,0.1235,0.1259,0.1344,0.1245,0.1245,0.1307,0.1432,0.1453,0.1466,0.1334,0.1335,0.1336,0.1456,0,0.1291,0.1273,0.1275,0.1262,0.1256,0.1266,0.1262,0.1262,0.1262,0.1268,0.1282,0.1274,0.1274,0.1274,0.1308,0.1326,0.1371,0.1314,0.1367,0.1368,0.1394,0.1479,0.1447,0.1552,0.1466,0.1468,0.1469,0,0.1267,0.1262,0.1241,0.1248,0.1246,0.1239,0.1247,0.1244,0.1266,0.1266,0.129,0.1296,0.1342,0.1328,0.1415,0.1381,0.1417,0.1437,0.1442,0.1432,0.1409,0.1486,0.1574,0.1428,0.1486,0.1484,0.1483,0,0.1247,0.1243,0.1226,0.1224,0.1227,0.1226,0.1231,0.1244,0.1248,0.1273,0.1281,0.1334,0.1354,0.1417,0.1469,0.1449,0.1565,0.1537,0.1597,0.16,0.1566,0.1562,0.1526,0.1608,0.1607,0.1607,0.1607,0,0.1227,0.1217,0.1218,0.1207,0.1201,0.1212,0.1213,0.1222,0.1247,0.126,0.1286,0.1314,0.1375,0.1443,0.1497,0.1597,0.1597,0.1629,0.1638,0.1598,0.1596,0.1458,0.1352,0.1612,0.1611,0.161,0.1609,0,0.1197,0.1197,0.1187,0.1189,0.1189,0.1184,0.1198,0.12,0.1227,0.1249,0.126,0.1315,0.1412,0.1484,0.1584,0.1627,0.1645,0.174,0.1701,0.1704,0.1625,0.1525,0.149,0.146,0.1846,0.1847,0.1848,0,0.1171,0.1162,0.1164,0.1155,0.1152,0.1153,0.1151,0.1181,0.1191,0.1255,0.1267,0.1357,0.1418,0.1587,0.169,0.1817,0.1687,0.1836,0.1788,0.1639,0.1534,0.1445,0.1415,0.1792,0.1793,0.1793,0.1793,0,0.1129,0.1135,0.1127,0.111,0.1103,0.11,0.1108,0.1123,0.117,0.1208,0.1277,0.1335,0.1498,0.1605,0.1752,0.1831,0.1697,0.1851,0.1698,0.1499,0.1396,0.1364,0.1699,0.1797,0.1797,0.1797,0.1797,0.1796,0.1099,0.1085,0.1076,0.1058,0.1049,0.1042,0.1037,0.1078,0.1117,0.1179,0.1263,0.1342,0.1456,0.1674,0.1752,0.1777,0.1743,0.171,0.1612,0.1546,0.1471,0.183,0.1927,0.1927,0.1928,0.1928,0.1928,0,0.1056,0.1038,0.1018,0.0996,0.0968,0.098,0.0996,0.1004,0.1055,0.115,0.1226,0.1322,0.1407,0.1508,0.1575,0.1509,0.1497,0.1424,0.1253,0.1248,0.1575,0.1523,0.1534,0.1534,0.1534,0.1534,0.1534,0.1534,0.1025,0.0996,0.0984,0.0922,0.0901,0.0864,0.0869,0.0911,0.0975,0.106,0.1121,0.1183,0.1174,0.1119,0.1089,0.1119,0.0971,0.0949,0.0899,0.1048,0.1065,0.1081,0.1008,0.091,0.091,0.0591,0.0587,0.0585]},{"header":{"parameterUnit":"m.s-1","parameterCategory":2,"la1":30.2991,"la2":30.254,"lo1":-89.0895,"lo2":-89.0444,"dy":0.0017,"dx":0.0017,"nx":28,"ny":28,"refTime":"2025-03-27T09:00:00:Z","depth":"0","parameterNumber":3,"parameterNumberName":"V-component_of_CURRENTS"},"data":[0,0,0,0,0,0,0,0,0,0,0,0,0,0,0,0,0,0,0,0,0,0,0,0,0,0,0,0,0,0,0,0,0,0,0,0,0,0,0,0,0,0,0,0,0,0,0,0,0,0,0,0,0,0,0,0,0,0,-0.0948,-0.0948,0,-0.0973,-0.0974,-0.0974,-0.0995,-0.0995,-0.0995,-0.0994,-0.1056,-0.1058,-0.106,0,0,0,0,0,0,0,0,0,0,0,0,0,-0.0978,-0.0977,-0.0948,-0.0948,-0.0948,-0.0973,-0.0974,-0.0974,-0.0995,-0.0995,-0.0995,-0.0994,-0.1056,-0.1058,-0.106,0,0,0,0,0,0,0,0,0,0,0,0,0,-0.0984,-0.0977,-0.0948,-0.0958,-0.0959,-0.0973,-0.0974,-0.0975,-0.0995,-0.0995,-0.0995,-0.0994,-0.1055,-0.1058,-0.106,-0.1082,0,0,-0.1069,-0.107,0,0,0,0,0,0,0,0,-0.0984,-0.0983,-0.0956,-0.0957,-0.0958,-0.0977,-0.1007,-0.1011,-0.0995,-0.0986,-0.0994,-0.0994,-0.1031,-0.1035,-0.1046,-0.1085,-0.1088,-0.1069,-0.1071,-0.1072,-0.1073,0,0,0,0,0,0,0,-0.0983,-0.0983,-0.0962,-0.0956,-0.0957,-0.0981,-0.0982,-0.1008,-0.1013,-0.0987,-0.0987,-0.0983,-0.1032,-0.1044,-0.1048,-0.1089,-0.1069,-0.1071,-0.1073,-0.1074,-0.1092,-0.1091,0,0,0,0,0,0,-0.0968,-0.0982,-0.0961,-0.0962,-0.0966,-0.0981,-0.0981,-0.0975,-0.1012,-0.1016,-0.0983,-0.0984,-0.1039,-0.1045,-0.105,-0.1038,-0.1072,-0.1074,-0.1076,-0.1093,-0.1091,-0.109,0,0,0,0,0,0,-0.0969,-0.0966,-0.096,-0.097,-0.097,-0.0979,-0.0972,-0.0975,-0.0985,-0.1009,-0.1014,-0.0989,-0.1039,-0.1046,-0.1053,-0.1042,-0.1076,-0.1078,-0.1094,-0.1092,-0.1091,-0.104,0,0,0,0,0,0,-0.097,-0.0966,-0.096,-0.0968,-0.0969,-0.0966,-0.0972,-0.0976,-0.0981,-0.0982,-0.1015,-0.1021,-0.1039,-0.1049,-0.1056,-0.1046,-0.108,-0.1096,-0.1093,-0.1091,-0.1043,-0.1036,-0.1031,0,0,0,0,0,-0.0971,-0.0954,-0.096,-0.0957,-0.0959,-0.0966,-0.0969,-0.0978,-0.0981,-0.0987,-0.0993,-0.102,-0.104,-0.105,-0.1059,-0.105,-0.1097,-0.1094,-0.1092,-0.1045,-0.1038,-0.1031,0,0,0,0,0,0,-0.0963,-0.0955,-0.0961,-0.0943,-0.0955,-0.0968,-0.0966,-0.0977,-0.0989,-0.0987,-0.1012,-0.1018,-0.1018,-0.1038,-0.1049,-0.1045,-0.1071,-0.107,-0.1033,-0.1026,-0.102,-0.1002,-0.1082,0,0,0,0,0,-0.0959,-0.0945,-0.0951,-0.0939,-0.0941,-0.0957,-0.0961,-0.0969,-0.0977,-0.0983,-0.1002,-0.1012,-0.1015,-0.1023,-0.1036,-0.1042,-0.1048,-0.1038,-0.1032,-0.1027,-0.1016,-0.1005,-0.0997,-0.1082,-0.1082,-0.1082,0,0,-0.0954,-0.0945,-0.094,-0.0937,-0.0944,-0.094,-0.0959,-0.0961,-0.0958,-0.0988,-0.0988,-0.0998,-0.1011,-0.1007,-0.101,-0.1024,-0.1006,-0.1023,-0.1019,-0.1011,-0.1002,-0.0994,-0.0986,-0.108,-0.108,-0.108,0,0,-0.0936,-0.0929,-0.0916,-0.092,-0.0924,-0.0928,-0.0928,-0.0942,-0.0948,-0.0953,-0.0959,-0.0952,-0.098,-0.0971,-0.0972,-0.0942,-0.0974,-0.0954,-0.0914,-0.0904,-0.0897,-0.0891,-0.0891,-0.0886,-0.0952,-0.0952,-0.0952,0,-0.0931,-0.0913,-0.0917,-0.0907,-0.0898,-0.0919,-0.0907,-0.0918,-0.0933,-0.0924,-0.0945,-0.0937,-0.0956,-0.0923,-0.0911,-0.0928,-0.0935,-0.0943,-0.0896,-0.089,-0.0885,-0.0887,-0.0881,-0.0949,-0.0949,-0.095,-0.095,0,-0.0911,-0.0895,-0.0885,-0.0872,-0.0869,-0.0861,-0.0868,-0.0867,-0.0875,-0.0881,-0.0863,-0.0877,-0.0867,-0.0872,-0.0888,-0.0851,-0.0873,-0.089,-0.0915,-0.0873,-0.0878,-0.0873,-0.0945,-0.0946,-0.0947,-0.0947,0,0,-0.0883,-0.0874,-0.0866,-0.0854,-0.0846,-0.0837,-0.0822,-0.0807,-0.0783,-0.0805,-0.0771,-0.0775,-0.0783,-0.0782,-0.0796,-0.0789,-0.0764,-0.0825,-0.0825,-0.0826,-0.0751,-0.0733,-0.0727,-0.0779,-0.0778,-0.0777,-0.077,0,-0.0862,-0.0835,-0.0832,-0.0798,-0.0782,-0.0781,-0.0761,-0.075,-0.0745,-0.0722,-0.0727,-0.0712,-0.075,-0.0741,-0.0737,-0.0755,-0.0749,-0.0765,-0.079,-0.079,-0.0781,-0.0719,-0.0648,-0.0633,-0.0766,-0.0765,-0.0765,0,-0.0833,-0.0816,-0.0784,-0.0751,-0.0742,-0.0723,-0.0672,-0.066,-0.0634,-0.0634,-0.0614,-0.0627,-0.0609,-0.0655,-0.0658,-0.0671,-0.0704,-0.0724,-0.0725,-0.072,-0.0762,-0.0696,-0.062,-0.0593,-0.0758,-0.0758,-0.0759,0,-0.0798,-0.0771,-0.074,-0.0731,-0.0704,-0.0678,-0.0658,-0.0626,-0.0601,-0.0571,-0.0554,-0.0542,-0.0538,-0.0565,-0.0614,-0.0638,-0.0624,-0.0663,-0.0675,-0.0676,-0.0624,-0.0621,-0.0522,-0.0661,-0.0661,-0.0661,-0.0661,0,-0.0761,-0.073,-0.0722,-0.0702,-0.065,-0.0645,-0.0582,-0.0565,-0.0529,-0.0484,-0.0507,-0.0474,-0.0517,-0.0522,-0.0576,-0.0599,-0.0595,-0.0647,-0.066,-0.0604,-0.06,-0.0583,-0.0593,-0.0661,-0.0661,-0.0661,-0.0661,0,-0.0712,-0.0715,-0.0672,-0.0645,-0.0631,-0.0589,-0.0538,-0.0492,-0.0481,-0.042,-0.0412,-0.0413,-0.0419,-0.0461,-0.0496,-0.0543,-0.0548,-0.0588,-0.0523,-0.0528,-0.0517,-0.0528,-0.0454,-0.0456,-0.0592,-0.0592,-0.0591,0,-0.0679,-0.0659,-0.0624,-0.0593,-0.0574,-0.0522,-0.048,-0.046,-0.0414,-0.038,-0.0345,-0.0342,-0.0325,-0.0367,-0.0422,-0.0479,-0.0503,-0.0473,-0.05,-0.0478,-0.0501,-0.0507,-0.0516,-0.0418,-0.0416,-0.0414,-0.0413,0,-0.0609,-0.0605,-0.0575,-0.0525,-0.0479,-0.042,-0.0367,-0.033,-0.0301,-0.0265,-0.0222,-0.0211,-0.0245,-0.0249,-0.0326,-0.0375,-0.0421,-0.0444,-0.0424,-0.0343,-0.0339,-0.036,-0.0478,-0.0399,-0.04,-0.0401,-0.0402,-0.0402,-0.0551,-0.052,-0.0496,-0.0442,-0.0393,-0.0324,-0.0269,-0.022,-0.0154,-0.0088,-0.0102,-0.0052,-0.0075,-0.016,-0.0238,-0.0275,-0.0332,-0.0286,-0.0301,-0.031,-0.0296,-0.0386,-0.0323,-0.0324,-0.0325,-0.0325,-0.0326,0,-0.0483,-0.0462,-0.0411,-0.0354,-0.0291,-0.0279,-0.0195,-0.0139,-0.0061,0.0014,0.0059,0.0136,0.0116,0.0038,-0.0026,-0.0096,-0.0151,-0.0129,-0.0106,-0.0127,-0.0192,-0.0168,-0.0063,-0.0063,-0.0063,-0.0063,-0.0063,-0.0063,-0.0442,-0.0394,-0.0379,-0.0276,-0.0232,-0.0144,-0.0092,-0.0018,0.0053,0.0175,0.0258,0.0296,0.0292,0.0221,0.0131,0.0071,0.0023,0.0018,-0.0048,-0.0069,-0.0085,-0.01,-0.0076,0.0046,0.0046,0.0053,0.0053,0.0053]}],[{"header":{"parameterUnit":"m.s-1","parameterCategory":2,"la1":30.2991,"la2":30.254,"lo1":-89.0895,"lo2":-89.0444,"dy":0.0017,"dx":0.0017,"nx":28,"ny":28,"refTime":"2025-03-27T09:00:00:Z","depth":"2","parameterNumber":2,"parameterNumberName":"U-component_of_CURRENTS"},"data":[0,0,0,0,0,0,0,0,0,0,0,0,0,0,0,0,0,0,0,0,0,0,0,0,0,0,0,0,0,0,0,0,0,0,0,0,0,0,0,0,0,0,0,0,0,0,0,0,0,0,0,0,0,0,0,0,0,0,0.1775,0.1776,0,0.1872,0.1874,0.1875,0.2018,0.202,0.2022,0.2023,0.2127,0.2128,0.2129,0,0,0,0,0,0,0,0,0,0,0,0,0,0.1726,0.1726,0.1775,0.1776,0.1776,0.1872,0.1874,0.1876,0.2018,0.202,0.2022,0.2024,0.2126,0.2127,0.2129,0,0,0,0,0,0,0,0,0,0,0,0,0,0.1784,0.1726,0.1775,0.1853,0.1861,0.1871,0.1874,0.1876,0.2017,0.202,0.2023,0.2025,0.2126,0.2127,0.2129,0.2083,0,0,0.2134,0.2134,0,0,0,0,0,0,0,0,0.178,0.1786,0.1841,0.1848,0.1856,0.1929,0.1894,0.1943,0.2016,0.1965,0.2023,0.2027,0.2054,0.2062,0.2084,0.2088,0.2092,0.2134,0.2135,0.2135,0.2136,0,0,0,0,0,0,0,0.1776,0.1783,0.1821,0.1841,0.1851,0.1887,0.1899,0.1904,0.1999,0.197,0.1979,0.1977,0.206,0.2082,0.2088,0.2094,0.2134,0.2135,0.2136,0.2137,0.2192,0.2193,0,0,0,0,0,0,0.1746,0.1779,0.1818,0.1823,0.1816,0.1885,0.1899,0.1909,0.1999,0.2013,0.1975,0.1983,0.2078,0.2086,0.2092,0.2139,0.2135,0.2137,0.2138,0.2192,0.2193,0.2193,0,0,0,0,0,0,0.1745,0.1749,0.1814,0.1797,0.1807,0.1882,0.1893,0.1909,0.1973,0.2001,0.2018,0.2025,0.2081,0.2089,0.2152,0.2141,0.2138,0.2139,0.2191,0.2192,0.2193,0.2172,0,0,0,0,0,0,0.1743,0.1748,0.1769,0.1795,0.1807,0.1843,0.189,0.1909,0.1962,0.1976,0.2048,0.2059,0.2084,0.215,0.2154,0.2143,0.214,0.2191,0.2192,0.2193,0.2172,0.2172,0.2172,0,0,0,0,0,0.1741,0.1752,0.177,0.1776,0.1825,0.1842,0.1854,0.192,0.1961,0.199,0.2057,0.2059,0.2158,0.2152,0.2156,0.2146,0.219,0.2191,0.2193,0.2172,0.2172,0.2172,0,0,0,0,0,0,0.1743,0.1767,0.1788,0.1808,0.1831,0.1865,0.1899,0.1931,0.2005,0.2043,0.2074,0.2089,0.2146,0.2147,0.2139,0.2167,0.2169,0.2171,0.2152,0.2152,0.2152,0.2148,0.2141,0,0,0,0,0,0.1745,0.1766,0.1784,0.1802,0.1818,0.1862,0.1886,0.1931,0.198,0.202,0.2061,0.2108,0.2142,0.2154,0.2196,0.2196,0.222,0.2191,0.2191,0.219,0.2191,0.2219,0.2221,0.2197,0.2197,0.2197,0,0,0.1755,0.1763,0.1783,0.1805,0.1838,0.1871,0.1889,0.1937,0.1984,0.2012,0.2102,0.2125,0.2153,0.2184,0.2202,0.2184,0.2215,0.2192,0.2191,0.2192,0.222,0.2222,0.2224,0.2198,0.2198,0.2198,0,0,0.1773,0.179,0.1823,0.1836,0.1876,0.19,0.1916,0.1965,0.2018,0.2081,0.2118,0.214,0.2193,0.2197,0.2206,0.2223,0.2235,0.2224,0.2192,0.2218,0.222,0.2222,0.2275,0.2282,0.2196,0.2196,0.2196,0,0.1809,0.1823,0.1833,0.1858,0.1881,0.1914,0.1958,0.1999,0.2067,0.2096,0.2123,0.2185,0.2201,0.2208,0.2209,0.222,0.2248,0.2186,0.2217,0.2219,0.2222,0.2276,0.2283,0.2195,0.2196,0.2196,0.2196,0,0.1832,0.1862,0.1876,0.1925,0.1949,0.1986,0.2026,0.2075,0.213,0.2154,0.2203,0.2217,0.2225,0.2227,0.2222,0.2219,0.2241,0.2234,0.2213,0.2222,0.228,0.2288,0.2194,0.2195,0.2195,0.2195,0,0,0.1888,0.1905,0.1919,0.1945,0.1991,0.2014,0.2084,0.2137,0.2182,0.222,0.225,0.2268,0.2229,0.2235,0.2205,0.2211,0.2244,0.221,0.2212,0.2257,0.2325,0.2146,0.2139,0.2237,0.2238,0.2239,0.2366,0,0.1929,0.1978,0.1979,0.2042,0.2071,0.2106,0.2155,0.2203,0.2249,0.2278,0.2265,0.2276,0.2241,0.2214,0.2213,0.2241,0.2262,0.2211,0.2315,0.2319,0.2151,0.2139,0.1926,0.2002,0.2374,0.2376,0.2377,0,0.1948,0.1982,0.2049,0.2091,0.2112,0.2153,0.2229,0.2274,0.2305,0.2329,0.2305,0.2281,0.2247,0.223,0.2271,0.2239,0.2273,0.2311,0.2317,0.2157,0.2152,0.205,0.2003,0.2391,0.239,0.2389,0.2388,0,0.196,0.2021,0.2078,0.2094,0.2156,0.2201,0.2238,0.229,0.2311,0.2325,0.2318,0.2298,0.2269,0.2304,0.2307,0.2296,0.2395,0.2393,0.2287,0.2279,0.2118,0.209,0.2455,0.2455,0.2454,0.2454,0.2454,0,0.1976,0.2025,0.2086,0.2119,0.2175,0.2213,0.226,0.2305,0.2322,0.2322,0.23,0.2285,0.2285,0.2305,0.2336,0.231,0.2409,0.2279,0.2281,0.2104,0.2075,0.2424,0.2419,0.2459,0.2458,0.2457,0.2456,0,0.1976,0.202,0.2078,0.2159,0.2174,0.2215,0.2239,0.2259,0.2291,0.2286,0.2265,0.2274,0.228,0.2297,0.2374,0.2318,0.2345,0.233,0.212,0.2089,0.2222,0.2215,0.2219,0.2213,0.2208,0.2204,0.2201,0,0.1974,0.2008,0.2091,0.2105,0.2143,0.218,0.2189,0.2232,0.224,0.2278,0.2269,0.2262,0.219,0.221,0.2139,0.2126,0.2275,0.1949,0.185,0.2187,0.2191,0.2191,0.219,0.1678,0.167,0.1664,0.1659,0,0.1964,0.2006,0.2051,0.2085,0.2107,0.2115,0.214,0.2135,0.218,0.2157,0.2173,0.2113,0.205,0.1858,0.178,0.1778,0.1907,0.1817,0.2246,0.1724,0.1672,0.1677,0.1696,0.1605,0.1611,0.1615,0.1618,0.162,0.1935,0.1958,0.2005,0.2033,0.2046,0.2046,0.2025,0.2009,0.198,0.1862,0.198,0.1764,0.1687,0.1361,0.1374,0.1398,0.1523,0.1478,0.15,0.1527,0.1394,0.1331,0.1181,0.1183,0.1186,0.1188,0.119,0,0.1842,0.1894,0.1929,0.1952,0.1939,0.1976,0.1971,0.186,0.1752,0.1614,0.1511,0.1207,0.0996,0.1006,0.0901,0.0899,0.0956,0.0928,0.0982,0.1031,0.1076,0.0925,0.0586,0.0585,0.0584,0.0584,0,0,0.1787,0.1793,0.1828,0.1815,0.1835,0.1772,0.1751,0.1549,0.1402,0.1096,0.0894,0.0758,0.0807,0.0588,0.062,0.0591,0.0823,0.0583,0.1048,0.1151,0.1196,0.1352,0.1166,0,0,0,0,0]},{"header":{"parameterUnit":"m.s-1","parameterCategory":2,"la1":30.2991,"la2":30.254,"lo1":-89.0895,"lo2":-89.0444,"dy":0.0017,"dx":0.0017,"nx":28,"ny":28,"refTime":"2025-03-27T09:00:00:Z","depth":"2","parameterNumber":3,"parameterNumberName":"V-component_of_CURRENTS"},"data":[0,0,0,0,0,0,0,0,0,0,0,0,0,0,0,0,0,0,0,0,0,0,0,0,0,0,0,0,0,0,0,0,0,0,0,0,0,0,0,0,0,0,0,0,0,0,0,0,0,0,0,0,0,0,0,0,0,0,0.0489,0.0488,0,0.0418,0.0417,0.0417,0.034,0.0339,0.0338,0.0337,0.0183,0.0179,0.0176,0,0,0,0,0,0,0,0,0,0,0,0,0,0.0525,0.0525,0.0489,0.0488,0.0487,0.0419,0.0417,0.0416,0.034,0.0339,0.0338,0.0337,0.0184,0.018,0.0176,0,0,0,0,0,0,0,0,0,0,0,0,0,0.0486,0.0525,0.0489,0.0442,0.0437,0.0419,0.0417,0.0416,0.0341,0.0339,0.0338,0.0336,0.0185,0.018,0.0175,0.0175,0,0,0.0161,0.0159,0,0,0,0,0,0,0,0,0.0489,0.0485,0.045,0.0445,0.044,0.0388,0.0373,0.0332,0.0341,0.0376,0.0337,0.0336,0.0245,0.0235,0.0225,0.0168,0.0161,0.016,0.0157,0.0155,0.0154,0,0,0,0,0,0,0,0.0491,0.0487,0.046,0.0449,0.0443,0.0413,0.0407,0.0365,0.0317,0.0373,0.0367,0.0362,0.0242,0.023,0.022,0.0159,0.016,0.0156,0.0153,0.0151,-0.0028,-0.003,0,0,0,0,0,0,0.0506,0.049,0.0462,0.0458,0.0463,0.0414,0.0406,0.0405,0.0319,0.0306,0.0363,0.0359,0.0239,0.0226,0.0214,0.0119,0.0155,0.0151,0.0148,-0.0026,-0.0028,-0.003,0,0,0,0,0,0,0.0507,0.0505,0.0465,0.0473,0.0466,0.0416,0.0414,0.0404,0.0372,0.0313,0.0298,0.0339,0.0237,0.0221,0.0163,0.0116,0.0149,0.0144,-0.0024,-0.0027,-0.0029,-0.0014,0,0,0,0,0,0,0.0509,0.0506,0.0499,0.0474,0.0466,0.0455,0.0415,0.0404,0.0373,0.0366,0.0288,0.0273,0.0235,0.0171,0.0158,0.011,0.014,-0.0022,-0.0025,-0.0029,-0.0012,-0.0016,-0.0019,0,0,0,0,0,0.051,0.0513,0.0499,0.0495,0.0463,0.0455,0.0448,0.0406,0.0373,0.0369,0.0307,0.0275,0.0138,0.0167,0.0152,0.0101,-0.002,-0.0024,-0.0028,-0.001,-0.0015,-0.0019,0,0,0,0,0,0,0.0523,0.0505,0.0489,0.0485,0.0472,0.0443,0.0427,0.0402,0.0352,0.0326,0.027,0.0252,0.0191,0.0142,0.0175,0.0036,0.0045,0.0038,0.0064,0.0059,0.0055,0.008,0.0136,0,0,0,0,0,0.0527,0.0522,0.0505,0.0501,0.0491,0.0457,0.0442,0.0415,0.0374,0.0349,0.0294,0.0219,0.0166,0.0112,0.0073,-0.0004,0.0011,-0.0055,-0.0059,-0.0061,-0.0054,-0.0045,-0.0045,-0.0044,-0.0044,-0.0044,0,0,0.0528,0.0519,0.0514,0.0503,0.048,0.0469,0.0443,0.0418,0.0395,0.0339,0.0276,0.0228,0.0153,0.0079,0.004,0.0023,-0.0055,-0.0066,-0.0068,-0.0059,-0.0049,-0.0048,-0.0048,-0.0047,-0.0047,-0.0046,0,0,0.0534,0.0522,0.0517,0.0511,0.0484,0.0466,0.0459,0.0419,0.0385,0.0331,0.0282,0.0217,0.0115,0.006,0.0016,-0.0032,-0.0044,-0.0081,-0.0114,-0.0105,-0.0104,-0.0102,-0.0073,-0.0069,-0.0117,-0.0117,-0.0117,0,0.053,0.0525,0.0516,0.0512,0.0497,0.0465,0.0451,0.0425,0.0367,0.0337,0.0307,0.0181,0.0113,0.0036,-0.0011,-0.0037,-0.0032,-0.0086,-0.0104,-0.0103,-0.0101,-0.0072,-0.0067,-0.0117,-0.0117,-0.0117,-0.0117,0,0.0536,0.0525,0.0522,0.0504,0.0494,0.0477,0.0447,0.0418,0.0363,0.0328,0.0257,0.0182,0.0091,0.0047,-0.0015,-0.0069,-0.0065,-0.0074,-0.0079,-0.0099,-0.0068,-0.0064,-0.0117,-0.0117,-0.0117,-0.0117,0,0,0.0537,0.0524,0.0519,0.0508,0.0481,0.0475,0.0442,0.0404,0.0376,0.0309,0.027,0.015,0.0097,0.0044,-0.003,-0.0056,-0.0063,-0.0096,-0.0096,-0.0041,-0.0035,0.0006,0.0015,-0.0082,-0.0081,-0.0081,-0.0011,0,0.0531,0.0525,0.0514,0.0495,0.0487,0.0457,0.0436,0.04,0.0352,0.0312,0.0239,0.0171,0.0098,0.0029,-0.0004,-0.0037,-0.0055,-0.008,-0.0046,-0.0044,0.0016,0.002,-0.0012,0.005,-0.0006,-0.0006,-0.0005,0,0.0534,0.053,0.0507,0.049,0.048,0.0456,0.0416,0.0394,0.0346,0.031,0.0243,0.0185,0.0107,0.0061,0.0023,0.0002,-0.0032,-0.0037,-0.0035,0.0003,0.0004,0.0055,0.006,0.0002,0.0002,0.0001,0.0001,0,0.0541,0.0523,0.05,0.0494,0.0471,0.0437,0.0412,0.0373,0.0359,0.0296,0.0282,0.0206,0.0163,0.0125,0.0064,0.0025,0.0079,0.0034,0.0063,0.0067,0.0048,0.005,0.0031,0.0031,0.0031,0.003,0.003,0,0.0544,0.0527,0.0493,0.0483,0.045,0.0432,0.0391,0.0368,0.0345,0.0348,0.026,0.027,0.017,0.017,0.0112,0.0122,0.0117,0.0078,0.0089,0.0052,0.0053,0.001,0.0006,0.0033,0.0032,0.0032,0.0032,0,0.0551,0.0529,0.0507,0.0468,0.0447,0.042,0.0381,0.0376,0.0352,0.0362,0.0337,0.0315,0.033,0.0284,0.0256,0.0199,0.0198,0.0201,0.0177,0.0183,0.0164,0.016,0.0229,0.0231,0.0233,0.0235,0.0236,0,0.0551,0.0541,0.0493,0.0472,0.0438,0.0398,0.0384,0.0365,0.0385,0.0414,0.0444,0.0444,0.0495,0.0504,0.0392,0.0354,0.0316,0.028,0.0192,0.0182,0.0185,0.0178,0.0172,0.0174,0.0174,0.0175,0.0175,0,0.0561,0.0533,0.0516,0.0473,0.0439,0.043,0.0416,0.045,0.0467,0.0524,0.0623,0.0668,0.064,0.0588,0.0508,0.0458,0.0278,0.0291,0.0297,0.0132,0.0136,0.0137,0.0131,0.018,0.0179,0.0179,0.0179,0.0178,0.0562,0.0551,0.052,0.0479,0.0453,0.0475,0.0493,0.0556,0.0645,0.0743,0.0788,0.0838,0.0705,0.0602,0.0514,0.0361,0.0369,0.0275,0.027,0.0265,0.025,0.0256,0.0322,0.0322,0.0322,0.0323,0.0323,0,0.0579,0.0559,0.0532,0.0502,0.0502,0.0463,0.053,0.06,0.0756,0.0818,0.0929,0.0808,0.0768,0.0612,0.038,0.0285,0.0229,0.0253,0.0177,0.0175,0.0173,0.0148,0.0195,0.0195,0.0194,0.0193,0,0,0.0586,0.0578,0.0566,0.0559,0.0528,0.0551,0.0599,0.0734,0.0803,0.0897,0.0881,0.0925,0.074,0.0545,0.0419,0.0292,0.0251,0.027,0.0383,0.0307,0.0305,0.02,0.0164,0,0,0,0,0]}],[{"header":{"parameterUnit":"m.s-1","parameterCategory":2,"la1":30.2991,"la2":30.254,"lo1":-89.0895,"lo2":-89.0444,"dy":0.0017,"dx":0.0017,"nx":28,"ny":28,"refTime":"2025-03-27T09:00:00:Z","depth":"4","parameterNumber":2,"parameterNumberName":"U-component_of_CURRENTS"},"data":[0,0,0,0,0,0,0,0,0,0,0,0,0,0,0,0,0,0,0,0,0,0,0,0,0,0,0,0,0,0,0,0,0,0,0,0,0,0,0,0,0,0,0,0,0,0,0,0,0,0,0,0,0,0,0,0,0,0,0.0334,0.0335,0,0.033,0.033,0.0329,0.0324,0.0324,0.0324,0.0324,0.0345,0.0345,0.0345,0,0,0,0,0,0,0,0,0,0,0,0,0,0.03,0.0301,0.0334,0.0335,0.0335,0.033,0.033,0.0329,0.0324,0.0324,0.0324,0.0325,0.0345,0.0345,0.0345,0,0,0,0,0,0,0,0,0,0,0,0,0,0.0303,0.0301,0.0334,0.0335,0.0335,0.033,0.033,0.0329,0.0323,0.0324,0.0324,0.0325,0.0345,0.0345,0.0346,0.0339,0,0,0.0347,0.0347,0,0,0,0,0,0,0,0,0.0303,0.0304,0.0334,0.0335,0.0335,0.0332,0.0326,0.0335,0.0323,0.0323,0.0324,0.0325,0.0345,0.0346,0.0337,0.034,0.0341,0.0347,0.0347,0.0347,0.0347,0,0,0,0,0,0,0,0.0303,0.0304,0.0328,0.0335,0.0335,0.0323,0.0324,0.0327,0.0329,0.0323,0.0324,0.033,0.0345,0.0337,0.0338,0.0341,0.0347,0.0347,0.0347,0.0347,0.0426,0.0428,0,0,0,0,0,0,0.0314,0.0304,0.0328,0.0329,0.0325,0.0324,0.0324,0.0329,0.0328,0.033,0.033,0.033,0.0336,0.0337,0.0339,0.0362,0.0347,0.0348,0.0348,0.0424,0.0426,0.0428,0,0,0,0,0,0,0.0313,0.0316,0.0329,0.032,0.0321,0.0325,0.0329,0.0329,0.0343,0.0334,0.0335,0.0348,0.0336,0.0338,0.0356,0.0362,0.0348,0.0348,0.0422,0.0425,0.0427,0.039,0,0,0,0,0,0,0.0312,0.0316,0.0325,0.0321,0.0322,0.0343,0.0329,0.0328,0.0347,0.0347,0.0349,0.035,0.0337,0.0356,0.0357,0.0363,0.0348,0.042,0.0423,0.0426,0.0389,0.0391,0.0393,0,0,0,0,0,0.0311,0.0327,0.0325,0.0329,0.0334,0.0344,0.0343,0.0344,0.0348,0.0357,0.0357,0.0351,0.038,0.0357,0.0358,0.0364,0.0418,0.0422,0.0426,0.0388,0.0391,0.0393,0,0,0,0,0,0,0.0327,0.0328,0.0326,0.0345,0.0351,0.0345,0.0356,0.0359,0.0364,0.0369,0.036,0.0361,0.038,0.0392,0.0367,0.0405,0.0404,0.0409,0.0375,0.0378,0.038,0.0423,0.0349,0,0,0,0,0,0.0333,0.0343,0.0343,0.0362,0.0365,0.0364,0.0371,0.0372,0.0376,0.038,0.038,0.0391,0.0394,0.0402,0.0409,0.0424,0.0438,0.0439,0.0441,0.0443,0.0484,0.0502,0.0508,0.0442,0.0442,0.0442,0,0,0.0343,0.035,0.0355,0.0366,0.0368,0.0371,0.0369,0.0387,0.0395,0.0382,0.0397,0.0395,0.0403,0.0411,0.0423,0.0422,0.0462,0.0448,0.0448,0.049,0.0507,0.0513,0.0519,0.0445,0.0444,0.0444,0,0,0.0366,0.0377,0.0383,0.0386,0.0399,0.0398,0.0411,0.0413,0.042,0.0437,0.0423,0.0443,0.045,0.0451,0.0453,0.0486,0.047,0.0482,0.0522,0.0537,0.0542,0.0546,0.0527,0.053,0.0484,0.0484,0.0484,0,0.0372,0.0382,0.039,0.0395,0.0402,0.0413,0.042,0.0426,0.0437,0.0451,0.0452,0.0479,0.0479,0.049,0.0498,0.049,0.0481,0.0494,0.0536,0.0541,0.0547,0.0526,0.053,0.0483,0.0483,0.0483,0.0483,0,0.0382,0.0395,0.0404,0.0407,0.0423,0.0433,0.0443,0.0458,0.0476,0.0489,0.0522,0.0522,0.0554,0.0538,0.0526,0.0559,0.053,0.0525,0.0517,0.055,0.0527,0.0531,0.0481,0.0481,0.0482,0.0482,0,0,0.0377,0.0398,0.0404,0.0405,0.0426,0.0438,0.0462,0.0485,0.0505,0.0535,0.0576,0.0585,0.061,0.0621,0.06,0.061,0.0614,0.0586,0.0587,0.0546,0.0614,0.0548,0.0546,0.0596,0.0598,0.0599,0.0563,0,0.0374,0.0381,0.0402,0.042,0.042,0.0443,0.0468,0.0501,0.0528,0.057,0.0606,0.064,0.0631,0.0641,0.0658,0.0627,0.0635,0.0624,0.061,0.0611,0.053,0.0554,0.0605,0.0567,0.0568,0.0569,0.057,0,0.037,0.0375,0.0391,0.0418,0.0424,0.0439,0.048,0.0509,0.0573,0.0601,0.066,0.0692,0.0734,0.0724,0.0725,0.0708,0.0687,0.0658,0.0655,0.0626,0.0556,0.0543,0.0579,0.0578,0.0577,0.0577,0.0576,0,0.0356,0.0371,0.0387,0.0392,0.0426,0.0441,0.0465,0.052,0.0558,0.0634,0.0677,0.073,0.0772,0.0766,0.0748,0.0731,0.0733,0.07,0.0619,0.0612,0.0694,0.069,0.0727,0.0727,0.0727,0.0728,0.0728,0,0.034,0.0351,0.0376,0.0379,0.0408,0.0439,0.0487,0.0512,0.058,0.0629,0.0708,0.0741,0.0789,0.0803,0.0767,0.0711,0.0757,0.0648,0.0614,0.0673,0.0668,0.0694,0.069,0.0726,0.0726,0.0727,0.0727,0,0.033,0.0347,0.0362,0.0389,0.0408,0.0432,0.0498,0.0519,0.0586,0.0651,0.0688,0.0769,0.0767,0.0784,0.0765,0.0729,0.0678,0.065,0.0705,0.0672,0.0533,0.0529,0.0546,0.0544,0.0542,0.054,0.0539,0,0.032,0.0329,0.0374,0.0384,0.0395,0.0438,0.0468,0.0529,0.0542,0.064,0.0653,0.0715,0.0751,0.0679,0.0692,0.0632,0.062,0.0599,0.0589,0.0557,0.0522,0.0521,0.0519,0.0536,0.0535,0.0535,0.0534,0,0.0297,0.0327,0.0344,0.0364,0.0386,0.0427,0.0449,0.0465,0.0532,0.0599,0.0607,0.0629,0.0634,0.0624,0.0607,0.0558,0.0614,0.0578,0.0581,0.0572,0.0544,0.0512,0.0512,0.0527,0.0528,0.0529,0.0529,0,0.0294,0.0295,0.032,0.0339,0.0366,0.0378,0.0412,0.0411,0.0455,0.0529,0.0523,0.0572,0.062,0.0583,0.0549,0.052,0.0492,0.0465,0.0473,0.0481,0.0478,0.0435,0.0372,0,0,0,0,0,0.0282,0.0274,0.0278,0.0295,0.0314,0.0334,0.0378,0.0406,0.0465,0.0444,0.048,0.0473,0.0465,0.0487,0.0436,0.0501,0.049,0.0438,0.0463,0.049,0.0498,0.0501,0,0,0,0,0,0,0.0274,0.0276,0.0268,0.0255,0.0251,0.0274,0.0305,0.0347,0.033,0.0389,0.0381,0.0424,0.0416,0.0478,0.042,0.0422,0.0421,0.0456,0.0453,0.0486,0.0493,0.0499,0.0505,0,0,0,0,0]},{"header":{"parameterUnit":"m.s-1","parameterCategory":2,"la1":30.2991,"la2":30.254,"lo1":-89.0895,"lo2":-89.0444,"dy":0.0017,"dx":0.0017,"nx":28,"ny":28,"refTime":"2025-03-27T09:00:00:Z","depth":"4","parameterNumber":3,"parameterNumberName":"V-component_of_CURRENTS"},"data":[0,0,0,0,0,0,0,0,0,0,0,0,0,0,0,0,0,0,0,0,0,0,0,0,0,0,0,0,0,0,0,0,0,0,0,0,0,0,0,0,0,0,0,0,0,0,0,0,0,0,0,0,0,0,0,0,0,0,0.0464,0.0464,0,0.0455,0.0454,0.0454,0.0464,0.0464,0.0465,0.0465,0.0493,0.0493,0.0493,0,0,0,0,0,0,0,0,0,0,0,0,0,0.0444,0.0444,0.0464,0.0464,0.0464,0.0455,0.0454,0.0454,0.0464,0.0464,0.0465,0.0466,0.0493,0.0493,0.0493,0,0,0,0,0,0,0,0,0,0,0,0,0,0.0443,0.0444,0.0464,0.0469,0.047,0.0455,0.0454,0.0454,0.0463,0.0464,0.0465,0.0466,0.0493,0.0493,0.0493,0.0478,0,0,0.0494,0.0494,0,0,0,0,0,0,0,0,0.0444,0.0444,0.0468,0.0469,0.0469,0.0463,0.0458,0.0465,0.0463,0.0464,0.0465,0.0466,0.0487,0.0488,0.0481,0.0479,0.0481,0.0494,0.0495,0.0495,0.0495,0,0,0,0,0,0,0,0.0444,0.0444,0.0458,0.0468,0.0469,0.0457,0.0458,0.0458,0.047,0.0464,0.0465,0.0467,0.0488,0.048,0.0482,0.0481,0.0494,0.0495,0.0495,0.0495,0.0484,0.0483,0,0,0,0,0,0,0.0451,0.0444,0.0458,0.0458,0.0461,0.0457,0.0458,0.0462,0.0469,0.0471,0.0466,0.0467,0.0479,0.0481,0.0483,0.0489,0.0495,0.0495,0.0495,0.0484,0.0484,0.0483,0,0,0,0,0,0,0.045,0.0452,0.0459,0.0452,0.0453,0.0457,0.0461,0.0462,0.0468,0.0471,0.0474,0.0474,0.048,0.0482,0.0488,0.0489,0.0495,0.0495,0.0485,0.0484,0.0484,0.0486,0,0,0,0,0,0,0.045,0.0452,0.0458,0.0453,0.0454,0.0458,0.0461,0.0461,0.0468,0.047,0.0478,0.0481,0.0481,0.0488,0.0489,0.049,0.0496,0.0486,0.0485,0.0484,0.0486,0.0485,0.0484,0,0,0,0,0,0.0449,0.0455,0.0458,0.046,0.0461,0.0458,0.0457,0.0461,0.0468,0.0469,0.0473,0.0481,0.0483,0.0488,0.0489,0.049,0.0486,0.0485,0.0484,0.0487,0.0486,0.0484,0,0,0,0,0,0,0.045,0.0457,0.046,0.0468,0.0467,0.0461,0.0463,0.0466,0.0468,0.0473,0.0477,0.0479,0.0483,0.0484,0.0489,0.0482,0.0485,0.0484,0.0487,0.0485,0.0484,0.0494,0.0496,0,0,0,0,0,0.0453,0.0462,0.0461,0.0469,0.0469,0.0467,0.0468,0.047,0.047,0.0473,0.0479,0.048,0.0475,0.048,0.0477,0.0477,0.0464,0.0476,0.0475,0.0474,0.0482,0.0449,0.0446,0.048,0.048,0.048,0,0,0.0455,0.0461,0.0466,0.047,0.0469,0.0468,0.047,0.0473,0.0472,0.0475,0.0482,0.048,0.0474,0.047,0.0472,0.0475,0.0456,0.0473,0.0473,0.048,0.0447,0.0444,0.0441,0.0479,0.0479,0.0479,0,0,0.0461,0.047,0.0475,0.0473,0.0476,0.0475,0.0479,0.0478,0.048,0.0482,0.0479,0.0479,0.048,0.0472,0.0468,0.046,0.0451,0.0458,0.0465,0.0433,0.043,0.0427,0.0402,0.0397,0.0459,0.0459,0.0459,0,0.0465,0.0471,0.0475,0.0476,0.048,0.0481,0.0484,0.0477,0.048,0.0481,0.0488,0.0479,0.0479,0.0466,0.0464,0.0459,0.044,0.0472,0.0432,0.0429,0.0426,0.0401,0.0395,0.0459,0.0459,0.0459,0.0459,0,0.0465,0.0473,0.0476,0.048,0.0485,0.0487,0.0484,0.0483,0.049,0.0488,0.0486,0.0479,0.0479,0.0471,0.0469,0.0448,0.044,0.0433,0.0437,0.0423,0.0397,0.0391,0.0459,0.0459,0.0459,0.0459,0,0,0.0472,0.0476,0.0479,0.0485,0.0489,0.0494,0.049,0.0489,0.0487,0.0488,0.049,0.0479,0.0484,0.0479,0.0471,0.0446,0.041,0.0435,0.0433,0.0414,0.0339,0.0324,0.0316,0.0391,0.039,0.039,0.0327,0,0.0473,0.0479,0.0484,0.0496,0.0499,0.05,0.0498,0.0497,0.0495,0.0493,0.0484,0.0486,0.0482,0.0487,0.046,0.0421,0.0395,0.0428,0.0352,0.035,0.0342,0.0309,0.0387,0.0323,0.0321,0.032,0.032,0,0.0471,0.0478,0.0493,0.0505,0.0508,0.0516,0.052,0.0522,0.0509,0.0509,0.0505,0.05,0.0478,0.0476,0.0405,0.0423,0.0388,0.0355,0.0351,0.0336,0.0325,0.034,0.0309,0.031,0.0311,0.0312,0.0312,0,0.0475,0.0487,0.0506,0.0508,0.0518,0.0526,0.0535,0.0529,0.0537,0.0526,0.0532,0.0498,0.0495,0.0435,0.0382,0.0389,0.0294,0.0293,0.0246,0.0245,0.0278,0.0282,0.0243,0.0243,0.0243,0.0243,0.0243,0,0.0472,0.0487,0.0509,0.0514,0.0538,0.0544,0.0567,0.0557,0.056,0.057,0.0554,0.0545,0.0485,0.0431,0.0373,0.0288,0.0286,0.0242,0.0223,0.028,0.0284,0.0274,0.0278,0.0241,0.0241,0.0242,0.0242,0,0.0472,0.0486,0.0504,0.0525,0.0541,0.0559,0.06,0.06,0.0606,0.0615,0.0619,0.0579,0.0501,0.0429,0.0327,0.0284,0.02,0.0174,0.024,0.0227,0.0175,0.018,0.0109,0.0108,0.0107,0.0106,0.0106,0,0.0467,0.0479,0.0521,0.0536,0.0549,0.0587,0.0605,0.0625,0.0623,0.0629,0.0618,0.0569,0.0531,0.0371,0.0296,0.0171,0.0164,0.0128,0.0153,0.017,0.0159,0.0166,0.0172,0.0104,0.0104,0.0104,0.0104,0,0.0455,0.048,0.0499,0.0533,0.056,0.06,0.0621,0.0625,0.0641,0.0656,0.0609,0.0551,0.0464,0.0355,0.0263,0.0178,0.015,0.0117,0.0119,0.0143,0.0163,0.0154,0.0162,0.01,0.0101,0.0101,0.0101,0,0.0451,0.0462,0.0493,0.0522,0.0559,0.0581,0.0606,0.0601,0.0616,0.0609,0.0592,0.0522,0.0486,0.0358,0.0267,0.0182,0.0168,0.0153,0.0153,0.0156,0.0191,0.0225,0.0159,0,0,0,0,0,0.0437,0.045,0.0474,0.0504,0.0538,0.0566,0.0596,0.0612,0.0631,0.0592,0.0594,0.0512,0.0396,0.0344,0.0253,0.0245,0.015,0.0137,0.0132,0.0082,0.0086,0.0118,0,0,0,0,0,0,0.0425,0.045,0.0465,0.0486,0.0504,0.0544,0.0567,0.0581,0.0554,0.0564,0.0491,0.0493,0.0364,0.0441,0.0251,0.0229,0.0215,0.009,0.0088,0.0079,0.0083,0.0086,0.0121,0,0,0,0,0]}]]